Tracking 32936 objects as of 16-Jan-2026
HD Live streaming from Space Station
objects crossing your sky now

CZ-4B DEB

Track CZ-4B DEB now!
10-day predictions


NORAD ID: 29536
Int'l Code: 2006-015C
Perigee: 543.4 km
Apogee: 672.6 km
Inclination: 97.9 °
Period: 96.7 minutes
Semi major axis: 6978 km
RCS: 0.0177 m2 (small)
Launch date: April 26, 2006
Source: People's Republic of China (PRC)
Launch site: Taiyaun Space Center, China (TSC)

Note: This is SATELLITE DEBRIS
Your satellite tracking list
Your tracking list is empty




NASA's NSSDC Master Catalog

Two Line Element Set (TLE):
1 29536U 06015C   26015.35581940  .00007012  00000-0  69231-3 0  9990
2 29536  97.8559 335.4111 0092599 106.7141 254.4264 14.89066151 41140
Source of the keplerian elements: AFSPC